When you browse on this site, cookies collect data to enhance your experience and personalize the content and advertising you see.
Visit our Privacy Policy to learn more. By continuing to use the site, you agree to this use of cookies and data.

Stündliche Wetter Cardonal

Heute, 12 August, Mittwoch

Zeit Temperatur Niederschläge Wind Luftdruck Luftfeuchtigkeit
00:00 +16°C° 0 mm 1 m/S 599 mmHg 94%
01:00 +16°C° 0 mm 1 m/S 599 mmHg 93%
02:00 +15°C° 0 mm 1 m/S 599 mmHg 93%
03:00 +15°C° 0 mm 1 m/S 599 mmHg 94%
04:00 +15°C° 0 mm 1 m/S 599 mmHg 94%
05:00 +14°C° 0 mm 1 m/S 599 mmHg 95%
06:00 +15°C° 0 mm 1 m/S 599 mmHg 90%
07:00 +16°C° 0 mm 1 m/S 600 mmHg 84%
08:00 +18°C° 0 mm 1 m/S 600 mmHg 79%
09:00 +20°C° 0 mm 1 m/S 601 mmHg 71%
10:00 +21°C° 0 mm 2 m/S 601 mmHg 63%
11:00 +22°C° 0 mm 3 m/S 601 mmHg 55%
12:00 +22°C° 0.2 mm 3 m/S 601 mmHg 58%
13:00 +22°C° 0.2 mm 4 m/S 600 mmHg 61%
14:00 +22°C° 0.2 mm 5 m/S 600 mmHg 64%
15:00 +21°C° 0.6 mm 4 m/S 599 mmHg 69%
16:00 +20°C° 0.6 mm 4 m/S 599 mmHg 73%
17:00 +19°C° 0.6 mm 4 m/S 599 mmHg 78%
18:00 +18°C° 0.6 mm 3 m/S 599 mmHg 83%
19:00 +17°C° 0.6 mm 3 m/S 600 mmHg 89%
20:00 +16°C° 0.6 mm 2 m/S 600 mmHg 94%
21:00 +16°C° 0.2 mm 2 m/S 600 mmHg 94%
22:00 +16°C° 0.2 mm 1 m/S 600 mmHg 95%
23:00 +15°C° 0.2 mm 1 m/S 600 mmHg 95%

Morgen, 13 August, Donnerstag

Zeit Temperatur Niederschläge Wind Luftdruck Luftfeuchtigkeit
00:00 +15°C° 0 mm 1 m/S 600 mmHg 95%
01:00 +15°C° 0 mm 1 m/S 599 mmHg 94%
02:00 +14°C° 0 mm 0 m/S 599 mmHg 94%
03:00 +14°C° 0 mm 0 m/S 599 mmHg 92%
04:00 +14°C° 0 mm 0 m/S 599 mmHg 91%
05:00 +14°C° 0 mm 0 m/S 599 mmHg 89%
06:00 +15°C° 0 mm 0 m/S 600 mmHg 84%
07:00 +16°C° 0 mm 0 m/S 600 mmHg 79%
08:00 +17°C° 0 mm 0 m/S 601 mmHg 75%
09:00 +20°C° 0 mm 1 m/S 601 mmHg 67%
10:00 +21°C° 0 mm 2 m/S 601 mmHg 60%
11:00 +24°C° 0 mm 2 m/S 602 mmHg 52%
12:00 +24°C° 0.4 mm 3 m/S 601 mmHg 55%
13:00 +23°C° 0.4 mm 4 m/S 601 mmHg 58%
14:00 +23°C° 0.4 mm 4 m/S 600 mmHg 60%
15:00 +22°C° 0.5 mm 4 m/S 600 mmHg 65%
16:00 +20°C° 0.5 mm 4 m/S 600 mmHg 69%
17:00 +19°C° 0.5 mm 4 m/S 599 mmHg 73%
18:00 +18°C° 0.3 mm 3 m/S 599 mmHg 81%
19:00 +17°C° 0.3 mm 2 m/S 599 mmHg 88%
20:00 +15°C° 0.3 mm 2 m/S 599 mmHg 95%
21:00 +15°C° 0 mm 1 m/S 599 mmHg 95%
22:00 +15°C° 0 mm 1 m/S 599 mmHg 95%
23:00 +14°C° 0 mm 0 m/S 599 mmHg 95%

übermorgen, 14 August, Freitag

Zeit Temperatur Niederschläge Wind Luftdruck Luftfeuchtigkeit
00:00 +13°C° 0 mm 0 m/S 599 mmHg 94%
01:00 +13°C° 0 mm 0 m/S 598 mmHg 93%
02:00 +13°C° 0 mm 0 m/S 598 mmHg 92%
03:00 +12°C° 0 mm 0 m/S 598 mmHg 93%
04:00 +12°C° 0 mm 0 m/S 597 mmHg 94%
05:00 +11°C° 0 mm 0 m/S 597 mmHg 94%
06:00 +13°C° 0 mm 0 m/S 598 mmHg 84%
07:00 +15°C° 0 mm 0 m/S 599 mmHg 74%
08:00 +17°C° 0 mm 0 m/S 600 mmHg 64%
09:00 +21°C° 0 mm 1 m/S 601 mmHg 57%
10:00 +22°C° 0 mm 1 m/S 601 mmHg 49%
11:00 +24°C° 0 mm 2 m/S 601 mmHg 41%
12:00 +24°C° 0.1 mm 3 m/S 601 mmHg 44%
13:00 +23°C° 0.1 mm 4 m/S 601 mmHg 47%
14:00 +25°C° 0.1 mm 5 m/S 600 mmHg 50%
15:00 +22°C° 0.4 mm 4 m/S 600 mmHg 57%
16:00 +21°C° 0.4 mm 4 m/S 599 mmHg 64%
17:00 +19°C° 0.4 mm 4 m/S 599 mmHg 71%
18:00 +18°C° 0.1 mm 3 m/S 599 mmHg 79%
19:00 +17°C° 0.1 mm 2 m/S 599 mmHg 88%
20:00 +15°C° 0.1 mm 1 m/S 599 mmHg 96%
21:00 +15°C° 0 mm 1 m/S 599 mmHg 95%
22:00 +14°C° 0 mm 1 m/S 599 mmHg 95%
23:00 +14°C° 0 mm 1 m/S 599 mmHg 95%

15 August, Samstag

Zeit Temperatur Niederschläge Wind Luftdruck Luftfeuchtigkeit
00:00 +13°C° 0 mm 0 m/S 598 mmHg 94%
01:00 +12°C° 0 mm 0 m/S 598 mmHg 93%
02:00 +12°C° 0 mm 0 m/S 597 mmHg 93%
03:00 +12°C° 0 mm 0 m/S 597 mmHg 92%
04:00 +12°C° 0 mm 0 m/S 597 mmHg 92%
05:00 +13°C° 0 mm 1 m/S 597 mmHg 91%
06:00 +14°C° 0 mm 1 m/S 598 mmHg 83%
07:00 +16°C° 0 mm 1 m/S 599 mmHg 74%
08:00 +19°C° 0 mm 1 m/S 600 mmHg 65%
09:00 +19°C° 0 mm 2 m/S 601 mmHg 59%
10:00 +21°C° 0 mm 2 m/S 601 mmHg 53%
11:00 +22°C° 0 mm 3 m/S 601 mmHg 47%
12:00 +22°C° 0.1 mm 4 m/S 601 mmHg 51%
13:00 +22°C° 0.1 mm 4 m/S 600 mmHg 54%
14:00 +22°C° 0.1 mm 5 m/S 600 mmHg 57%
15:00 +21°C° 0.6 mm 5 m/S 599 mmHg 63%
16:00 +20°C° 0.6 mm 4 m/S 599 mmHg 70%
17:00 +19°C° 0.6 mm 4 m/S 598 mmHg 76%
18:00 +18°C° 0.3 mm 3 m/S 599 mmHg 81%
19:00 +17°C° 0.3 mm 2 m/S 599 mmHg 86%
20:00 +16°C° 0.3 mm 2 m/S 599 mmHg 91%
21:00 +16°C° 0.5 mm 1 m/S 599 mmHg 92%
22:00 +15°C° 0.5 mm 1 m/S 599 mmHg 93%
23:00 +15°C° 0.5 mm 1 m/S 599 mmHg 94%

16 August, Sonntag

Zeit Temperatur Niederschläge Wind Luftdruck Luftfeuchtigkeit
00:00 +15°C° 0.1 mm 1 m/S 599 mmHg 95%
01:00 +15°C° 0.1 mm 1 m/S 598 mmHg 96%
02:00 +13°C° 0.1 mm 0 m/S 598 mmHg 97%
03:00 +13°C° 0 mm 0 m/S 598 mmHg 96%
04:00 +13°C° 0 mm 0 m/S 598 mmHg 95%
05:00 +13°C° 0 mm 0 m/S 598 mmHg 94%
06:00 +14°C° 0 mm 0 m/S 599 mmHg 88%
07:00 +16°C° 0 mm 1 m/S 599 mmHg 83%
08:00 +19°C° 0 mm 1 m/S 600 mmHg 78%
09:00 +19°C° 0 mm 2 m/S 600 mmHg 73%
10:00 +20°C° 0 mm 2 m/S 600 mmHg 69%
11:00 +21°C° 0 mm 3 m/S 601 mmHg 65%
12:00 +21°C° 0.1 mm 3 m/S 600 mmHg 65%
13:00 +21°C° 0.1 mm 4 m/S 600 mmHg 66%
14:00 +21°C° 0.1 mm 4 m/S 599 mmHg 67%
15:00 +20°C° 0.2 mm 4 m/S 599 mmHg 71%
16:00 +20°C° 0.2 mm 4 m/S 599 mmHg 75%
17:00 +19°C° 0.2 mm 3 m/S 599 mmHg 80%
18:00 +18°C° 0.3 mm 3 m/S 599 mmHg 85%
19:00 +17°C° 0.3 mm 2 m/S 599 mmHg 89%
20:00 +16°C° 0.3 mm 2 m/S 599 mmHg 94%
21:00 +16°C° 0.1 mm 2 m/S 599 mmHg 95%
22:00 +15°C° 0.1 mm 1 m/S 600 mmHg 96%
23:00 +15°C° 0.1 mm 1 m/S 600 mmHg 96%

17 August, Montag

Zeit Temperatur Niederschläge Wind Luftdruck Luftfeuchtigkeit
00:00 +15°C° 0 mm 1 m/S 600 mmHg 95%
01:00 +15°C° 0 mm 1 m/S 599 mmHg 94%
02:00 +15°C° 0 mm 1 m/S 599 mmHg 93%
03:00 +14°C° 0 mm 0 m/S 599 mmHg 93%
04:00 +14°C° 0 mm 0 m/S 599 mmHg 93%
05:00 +13°C° 0 mm 0 m/S 599 mmHg 94%
06:00 +14°C° 0 mm 0 m/S 600 mmHg 89%
07:00 +16°C° 0 mm 1 m/S 600 mmHg 84%
08:00 +18°C° 0 mm 1 m/S 601 mmHg 78%
09:00 +19°C° 0 mm 2 m/S 601 mmHg 70%
10:00 +21°C° 0 mm 3 m/S 602 mmHg 61%
11:00 +22°C° 0 mm 4 m/S 602 mmHg 53%
12:00 +23°C° 0 mm 4 m/S 602 mmHg 53%
13:00 +23°C° 0 mm 5 m/S 601 mmHg 53%
14:00 +23°C° 0 mm 5 m/S 601 mmHg 53%
15:00 +22°C° 0 mm 5 m/S 600 mmHg 59%
16:00 +21°C° 0 mm 5 m/S 600 mmHg 65%
17:00 +20°C° 0 mm 5 m/S 599 mmHg 72%
18:00 +18°C° 0.1 mm 4 m/S 599 mmHg 79%
19:00 +17°C° 0.1 mm 3 m/S 599 mmHg 87%
20:00 +16°C° 0.1 mm 2 m/S 599 mmHg 94%
21:00 +15°C° 0 mm 1 m/S 599 mmHg 94%
22:00 +15°C° 0 mm 1 m/S 599 mmHg 94%
23:00 +15°C° 0 mm 1 m/S 599 mmHg 94%
Mehr zeigen